Regional Weather Roundup
Issued by NWS Newport/Morehead, NC

Current Version | Previous Version | Graphics & Text | Print | Product List | Glossary Off
Versions: 1 2 3 4 5 6 7 8 9 10 11 12 13 14 15 16 17 18 19 20 21 22 23 24 25 26 27 28 29 30 31 32 33 34 35 36 37 38 39 40 41 42 43 44 45 46 47 48 49 50

000
ASUS42 KMHX 300422
RWRMHX
WEATHER ROUNDUP FOR EASTERN NORTH CAROLINA
NATIONAL WEATHER SERVICE NEWPORT/MOREHEAD CITY NC
1200 AM EDT WED JUL 30 2014

NOTE: "FAIR" INDICATES FEW OR NO CLOUDS BELOW 12,000 FEET
WITH NO SIGNIFICANT WEATHER AND/OR OBSTRUCTIONS TO VISIBILITY

NCZ015>017-031-032-045>047-102-103-300500-
NORTH COAST

CITY           SKY/WX    TMP DP  RH WIND       PRES   REMARKS
EDENTON        CLEAR     67  64  87 NE3       30.01S
ELIZABETH CITY CLEAR     70  62  76 E6        30.01S
KITTY HAWK     CLEAR     73  60  65 E3        29.99S
MANTEO         NOT AVBL

$$

NCZ045>047-081-094-103-104-300500-
CENTRAL COAST

CITY           SKY/WX    TMP DP  RH WIND       PRES   REMARKS
FRISCO         CLOUDY    75  64  68 NE6       29.99R
SWANQUARTER      N/A     72 N/A N/A NE3       29.97S

$$

NCZ095-097-098-100-101-300500-
SOUTHERN COAST

CITY           SKY/WX    TMP DP  RH WIND       PRES   REMARKS
BEAUFORT       CLOUDY    76  67  73 E7        29.98S
CEDAR ISLAND     N/A     77 N/A N/A N9G16     30.03S
JACKSONVILLE   CLOUDY    74  67  78 E6        29.99R
NEWPORT        NOT AVBL
PINEY ISLAND   CLOUDY    77  68  73 E12       29.98S
WILMINGTON     MOCLDY    70  69  97 CALM      29.98S


$$

NCZ011>013-027>030-043-044-078>080-089-090>093-098-300500-
COASTAL PLAIN

CITY           SKY/WX    TMP DP  RH WIND       PRES   REMARKS
AHOSKIE        CLEAR     64  60  88 CALM      30.01S
CLINTON        CLEAR     69  64  82 CALM      30.00R
ELIZABETHTOWN  CLEAR     71  63  75 CALM      29.99S
GOLDSBORO      CLEAR     68  64  88 SE1       29.98R
GREENVILLE     PTCLDY    70  64  83 E5        30.02S
HAVELOCK       CLOUDY    73  68  84 SE3       30.00R
KENANSVILLE    CLEAR     65  62  90 CALM      30.00S
KINSTON        CLEAR     71  63  73 E5        30.01R
NEW BERN       CLOUDY    74  67  78 NE5       30.01R
RICHLANDS      MOCLDY    70  63  78 CALM      30.00S
ROANOKE RAPIDS NOT AVBL
ROCKY MOUNT    CLEAR     64  61  90 CALM      30.00S
WASHINGTON     PTCLDY    69  64  84 E3        30.01S
WHITEVILLE     PTCLDY    72  65  80 CALM      29.97F

$$

AMZ130-135-150-152-154-156-158-170-250-252-270-ANZ085-086-088-633-658-670-300500-
MARINE OBSERVATIONS

STATION/POSITION TIME  TEMP    WIND        PRES    WAVE   SWELL
                       AIR SEA DIR/SP/G            HT/PER HT/PER
                 (UTC) (F)     (DEG/KT/KT) (MB)    (FT/S) (FT/S)
CHESAPEAKE LIGHT NOT AVBL
BUOY 44014       0400   75 78   30/  8/ 10 1015.4    2/ 8   2/ 8
DUCK             0400   74 74   60/  9/ 10 1015.3
2E DUCK          0300                        N/A     2/ 8
OREGON INLET     0400   74 80   40/  8/ 10 1015.6
BUOY 44095       0400      78                N/A     3/ 6
20E OREGON INLET NOT AVBL
HATTERAS CG      0400   76 81   50/  7/ 11 1015.6
DIAMOND BUOY     0400          VRB 14/ 16  1014.7    4/ 8   2/ 8
CAPE LOOKOUT     0400   77      60/ 13/ 14 1015.1
BEAUFORT LAB     0400   76 82   60/  7/  9 1014.9
30 SE NEW RIVER  0400   74 81   50/ 19/ 25 1015.0    3/ 6   2/ 8
5 SE WRIGHTSVILL 0400   75 82   80/ 10/ 12   N/A
BUOY 41002       0256   81 81  220/ 14/ 17 1014.6    6/ 7   5/ 8
BUOY 41004       0400   82 84   60/  4/  4 1013.7    2/ 5   2/ 5

$$


USA.gov is the U.S. government's official web portal to all federal, state and local government web resources and services.